Location: Cactus School
(34.5700°N, 118.0931°W)
Time: 08:55:57
(UTC-07:00)

S-56A Canister/Altair - Pass Details

Date: 17 April 2024
Orbit: 638 x 2488 km, 38.9° (Epoch: 29 May)

Event Time Altitude Azimuth Distance (km) Brightness Sun altitude
Rises 19:20:58 0° 264° (W) 3,385 12.5 0.3°
Reaches altitude 10° 19:23:07 10° 267° (W) 2,608 12.0 -0.1°
Maximum altitude 19:29:21 70° 351° (N) 1,259 8.8 -1.4°
Drops below altitude 10° 19:38:59 10° 75° (ENE) 3,921 10.6 -3.3°
Sets 19:42:56 0° 77° (ENE) 5,209 11.2 -4.1°
